Погода в Байны

Россия / Свердловская область     56°41′46″N   62°08′27″E
темп.,
°C
ветер,
м/с
пор.,
м/с
влажн.,
%
обл.,
%
осадки,
мм/ч
давл.,
гПа
погр.,
м
8 мая, сб
сб823:00+13ююз494958 0.0 1018136
02:00+11юз365349 0.0 101981
05:00+9ююз335543 0.0 101935
08:00+15ююз354310 0.0 1019250
11:00+20ююз332745 0.0 10181690
14:00+21юз2223100 0.0 10172658
17:00+21юз222387 0.0 10162742
20:00+17зюз2234100 0.0 101611
9 мая, вс
вс923:00+13ссз3360100 0.0 101730
02:00+12св2249100 0.0 101711
05:00+11с225176 0.0 101716
08:00+15св1152100 0.0 1018181
11:00+20всв2233100 0.0 1017735
14:00+22всв352798 0.0 10172678
17:00+22всв4426100 0.0 10172777
20:00+18ююз3342100 0.0 101853
10 мая, пн
пн1023:00+15ссз224477 0.0 101913
02:00+14в2248100 0.0 102015
05:00+13вюв336267 0.0 102141
08:00+17вюв355311 0.0 1023370
11:00+21вюв34375 0.0 10231676
14:00+22в44305 0.0 10222503
17:00+22вюв32275 0.0 10222479
20:00+18юв334120 0.0 102228
11 мая, вт
вт1123:00+14ююз335091 0.0 102342
02:00+13ююз3753100 0.0 1023112
05:00+13зюз3755100 0.0 1022140
08:00+14сз3774100 0.1 1023296
11:00+13зсз4691100 2.8 1023487
14:00+15сз7761100 1.0 10231077
17:00+15с675494 1.0 10241430
20:00+11ссз6106519 0.0 1026533
12 мая, ср
ср1223:00+8ссз237527 0.0 102625
02:00+7сз337994 0.0 102730
05:00+7сз2374100 0.0 102745
08:00+11сз2452100 0.0 1027303
11:00+15сз5540100 0.0 10251654
14:00+8зсз2486100 1.1 1026247
17:00+11сз237455 1.4 1025658
20:00+11ссз237797 0.0 102561